Change the Weather History Date:

Wednesday, August 21, 2013

  Actual Average Record
Temperature  
Mean Temperature 58 °F -  
Max Temperature 64 °F 56 °F 64 °F (2013)
Min Temperature 53 °F 48 °F 44 °F (1998)
Degree Days  
Heating Degree Days 6    
Growing Degree Days 8 (Base 50)    
Moisture  
Dew Point 50 °F    
Average Humidity 77    
Maximum Humidity 88    
Minimum Humidity 68    
Precipitation  
Precipitation 0.00 in - - ()
Sea Level Pressure  
Sea Level Pressure 29.92 in    
Wind  
Wind Speed 4 mph (NNE)    
Max Wind Speed 8 mph    
Max Gust Speed -    
Visibility 10 miles    
Events      
Averages and records for this station are not official NWS values.
T = Trace of Precipitation, MM = Missing Value Source: NWS Daily Summary

Daily Weather History Graph

Daily Weather History Graph

Search for Another Location

Airport or City:

Trip Planner

Search our weather history database for the weather conditions in past years. The results will help you decide how hot, cold, wet, or windy it might be!

Date:

Astronomy

Aug. 21, 2013 Rise Set
Actual Time 7:16 AM AKDT 9:55 PM AKDT
Civil Twilight 6:34 AM AKDT 10:37 PM AKDT
Nautical Twilight 5:38 AM AKDT 11:31 PM AKDT
Astronomical Twilight 4:26 AM AKDT 12:42 AM AKDT
Moon 9:42 PM AKDT (8/21) 8:30 AM AKDT (8/21)
Length of Visible Light 16h 03m
Length of Day
14h 39m
Full, 99% of the Moon is Illuminated
Aug 21
Full
Aug 28
Last Quarter
Sep 5
New
Sep 12
First Quarter
Sep 19
Full

Hourly Weather History & Observations

Time (AKDT) Temp. Dew Point Humidity Pressure Visibility Wind Dir Wind Speed Gust Speed Precip Events Conditions
12:16 AM 53.6 °F 44.6 °F 72% 29.99 in 10.0 mi WNW 5.8 mph - N/A   Overcast
12:36 AM 53.6 °F 44.6 °F 72% 29.99 in 10.0 mi WNW 6.9 mph - N/A   Overcast
12:56 AM 53.6 °F 44.6 °F 72% 29.99 in 10.0 mi NNW 5.8 mph - N/A   Overcast
1:16 AM 53.6 °F 46.4 °F 77% 29.98 in 10.0 mi North 3.5 mph - N/A   Overcast
1:36 AM 53.6 °F 46.4 °F 77% 29.98 in 10.0 mi Calm Calm - N/A   Overcast
1:56 AM 53.6 °F 46.4 °F 77% 29.98 in 10.0 mi Calm Calm - N/A   Overcast
2:16 AM 53.6 °F 46.4 °F 77% 29.98 in 10.0 mi Calm Calm - N/A   Overcast
2:36 AM 55.4 °F 46.4 °F 72% 29.97 in 10.0 mi Calm Calm - N/A   Overcast
2:56 AM 53.6 °F 46.4 °F 77% 29.97 in 10.0 mi Calm Calm - N/A   Overcast
3:16 AM 53.6 °F 46.4 °F 77% 29.97 in 10.0 mi Calm Calm - N/A   Overcast
3:36 AM 55.4 °F 46.4 °F 72% 29.97 in 10.0 mi NNW 4.6 mph - N/A   Overcast
3:56 AM 55.4 °F 48.2 °F 77% 29.96 in 10.0 mi Calm Calm - N/A   Overcast
4:16 AM 53.6 °F 46.4 °F 77% 29.96 in 10.0 mi NE 6.9 mph - N/A   Mostly Cloudy
4:36 AM 53.6 °F 48.2 °F 82% 29.95 in 10.0 mi NNE 5.8 mph - N/A   Mostly Cloudy
4:56 AM 55.4 °F 48.2 °F 77% 29.95 in 10.0 mi NE 5.8 mph - N/A   Overcast
5:16 AM 53.6 °F 48.2 °F 82% 29.96 in 10.0 mi NE 6.9 mph - N/A   Overcast
5:36 AM 53.6 °F 48.2 °F 82% 29.95 in 10.0 mi NNE 6.9 mph - N/A   Overcast
5:56 AM 55.4 °F 48.2 °F 77% 29.96 in 10.0 mi NNE 6.9 mph - N/A   Overcast
6:16 AM 55.4 °F 48.2 °F 77% 29.96 in 10.0 mi NE 4.6 mph - N/A   Overcast
6:36 AM 55.4 °F 48.2 °F 77% 29.95 in 10.0 mi NE 5.8 mph - N/A   Overcast
6:56 AM 55.4 °F 48.2 °F 77% 29.95 in 10.0 mi NE 4.6 mph - N/A   Overcast
7:16 AM 55.4 °F 48.2 °F 77% 29.95 in 10.0 mi ENE 4.6 mph - N/A   Overcast
7:36 AM 53.6 °F 48.2 °F 82% 29.95 in 10.0 mi Calm Calm - N/A   Overcast
7:56 AM 53.6 °F 48.2 °F 82% 29.94 in 10.0 mi Calm Calm - N/A   Overcast
8:16 AM 53.6 °F 50.0 °F 88% 29.95 in 10.0 mi ESE 3.5 mph - N/A   Overcast
8:36 AM 55.4 °F 48.2 °F 77% 29.94 in 10.0 mi Calm Calm - N/A   Mostly Cloudy
8:56 AM 55.4 °F 48.2 °F 77% 29.95 in 10.0 mi NE 4.6 mph - N/A   Mostly Cloudy
9:16 AM 55.4 °F 48.2 °F 77% 29.94 in 10.0 mi East 3.5 mph - N/A   Overcast
9:36 AM 57.2 °F 50.0 °F 77% 29.94 in 10.0 mi NE 8.1 mph - N/A   Overcast
9:56 AM 57.2 °F 50.0 °F 77% 29.95 in 10.0 mi NE 5.8 mph - N/A   Overcast
10:16 AM 59.0 °F 51.8 °F 77% 29.94 in 10.0 mi North 3.5 mph - N/A   Mostly Cloudy
10:36 AM 57.2 °F 50.0 °F 77% 29.94 in 10.0 mi NNE 6.9 mph - N/A   Scattered Clouds
10:56 AM 57.2 °F 50.0 °F 77% 29.94 in 10.0 mi Calm Calm - N/A   Overcast
11:16 AM 57.2 °F 51.8 °F 82% 29.94 in 10.0 mi NNE 4.6 mph - N/A   Mostly Cloudy
11:36 AM 60.8 °F 51.8 °F 72% 29.94 in 10.0 mi Calm Calm - N/A   Mostly Cloudy
11:56 AM 60.8 °F 51.8 °F 72% 29.94 in 10.0 mi SE 3.5 mph - N/A   Overcast
12:16 PM 62.6 °F 53.6 °F 72% 29.94 in 10.0 mi NW 3.5 mph - N/A   Overcast
12:36 PM 60.8 °F 51.8 °F 72% 29.94 in 10.0 mi NNE 5.8 mph - N/A   Overcast
12:56 PM 60.8 °F 51.8 °F 72% 29.94 in 10.0 mi NE 6.9 mph - N/A   Overcast
1:16 PM 62.6 °F 53.6 °F 72% 29.94 in 10.0 mi Calm Calm - N/A   Overcast
1:36 PM 64.4 °F 55.4 °F 73% 29.93 in 10.0 mi ESE 4.6 mph - N/A   Overcast
1:56 PM 64.4 °F 53.6 °F 68% 29.93 in 10.0 mi Calm Calm - N/A   Overcast
2:16 PM 64.4 °F 53.6 °F 68% 29.92 in 10.0 mi Calm Calm - N/A   Overcast
2:36 PM 62.6 °F 53.6 °F 72% 29.92 in 10.0 mi NNE 5.8 mph - N/A   Overcast
2:56 PM 62.6 °F 53.6 °F 72% 29.92 in 10.0 mi NE 8.1 mph - N/A   Overcast
3:16 PM 62.6 °F 53.6 °F 72% 29.91 in 10.0 mi NE 6.9 mph - N/A   Overcast
3:36 PM 64.4 °F 53.6 °F 68% 29.90 in 10.0 mi NNE 6.9 mph - N/A   Mostly Cloudy
3:56 PM 64.4 °F 53.6 °F 68% 29.90 in 10.0 mi NNE 5.8 mph - N/A   Mostly Cloudy
4:16 PM 64.4 °F 53.6 °F 68% 29.89 in 10.0 mi NE 4.6 mph - N/A   Mostly Cloudy
4:36 PM 64.4 °F 53.6 °F 68% 29.89 in 10.0 mi NNE 5.8 mph - N/A   Mostly Cloudy
4:56 PM 64.4 °F 53.6 °F 68% 29.89 in 10.0 mi NE 5.8 mph - N/A   Overcast
5:16 PM 64.4 °F 53.6 °F 68% 29.88 in 10.0 mi NNE 3.5 mph - N/A   Overcast
5:36 PM 64.4 °F 53.6 °F 68% 29.88 in 10.0 mi NNE 6.9 mph - N/A   Overcast
5:56 PM 62.6 °F 53.6 °F 72% 29.88 in 10.0 mi NNE 6.9 mph - N/A   Overcast
6:16 PM 62.6 °F 51.8 °F 68% 29.87 in 10.0 mi NNE 4.6 mph - N/A   Overcast
6:36 PM 62.6 °F 51.8 °F 68% 29.87 in 10.0 mi North 3.5 mph - N/A   Overcast
6:56 PM 60.8 °F 53.6 °F 77% 29.87 in 10.0 mi Calm Calm - N/A   Overcast
7:16 PM 55.4 °F 51.8 °F 88% 29.87 in 10.0 mi NNE 5.8 mph - N/A   Overcast
7:36 PM 57.2 °F 51.8 °F 82% 29.86 in 10.0 mi Calm Calm - N/A   Overcast
7:56 PM 57.2 °F 50.0 °F 77% 29.86 in 10.0 mi Calm Calm - N/A   Mostly Cloudy
8:16 PM 57.2 °F 50.0 °F 77% 29.86 in 10.0 mi Calm Calm - N/A   Overcast
8:36 PM 57.2 °F 51.8 °F 82% 29.86 in 10.0 mi Calm Calm - N/A   Overcast
8:56 PM 57.2 °F 51.8 °F 82% 29.86 in 10.0 mi Calm Calm - N/A   Overcast
9:16 PM 55.4 °F 51.8 °F 88% 29.86 in 10.0 mi NNE 4.6 mph - N/A   Overcast
9:36 PM 55.4 °F 51.8 °F 88% 29.86 in 10.0 mi NNE 5.8 mph - N/A   Overcast
9:56 PM 55.4 °F 51.8 °F 88% 29.86 in 10.0 mi WNW 4.6 mph - N/A   Overcast
10:16 PM 55.4 °F 51.8 °F 88% 29.86 in 10.0 mi Calm Calm - N/A   Overcast
10:36 PM 55.4 °F 51.8 °F 88% 29.86 in 10.0 mi Calm Calm - N/A   Overcast
10:56 PM 55.4 °F 51.8 °F 88% 29.86 in 10.0 mi Calm Calm - N/A   Overcast
11:16 PM 55.4 °F 51.8 °F 88% 29.86 in 10.0 mi ENE 3.5 mph - N/A   Scattered Clouds
11:36 PM 55.4 °F 51.8 °F 88% 29.85 in 10.0 mi Calm Calm - N/A   Scattered Clouds
11:56 PM 55.4 °F 51.8 °F 88% 29.85 in 10.0 mi Calm Calm - N/A   Overcast